Regional Weather Roundup
Issued by NWS Boston, MA

Home | Current Version | Previous Version | Text Only | Print | Product List | Glossary On
Versions: 1 2 3 4 5 6 7 8 9 10 11 12 13 14 15 16 17 18 19 20 21 22 23 24 25 26 27 28 29 30 31 32 33 34 35 36 37 38 39 40 41 42 43 44 45 46 47 48 49 50
000
ASUS41 KBOX 051510
RWRBOX

REGIONAL WEATHER ROUNDUP
NATIONAL WEATHER SERVICE TAUNTON MA
1000 AM EST THU MAR 05 2015

NOTE:  "FAIR" INDICATES FEW OR NO CLOUDS BELOW 12,000 FEET WITH NO
SIGNIFICANT WEATHER AND/OR OBSTRUCTIONS TO VISIBILITY.  THE FOLLOWING
OBSERVATION LOCATIONS DO NOT REPORT PRESENT WEATHER...PROVINCETOWN...
SMITHFIELD...BLOCK ISLAND...KEENE...AND OXFORD.

MAZALL-051600-
EASTERN MASSACHUSETTS

CITY           SKY/WX    TMP DP  RH WIND       PRES   REMARKS
BOSTON         CLOUDY    31   9  39 NW14      30.04R WCI  21
BEVERLY        CLOUDY    31   7  36 NW12      30.03R WCI  22
LAWRENCE       CLOUDY    30   8  39 NW10      30.05R WCI  21
BEDFORD        CLOUDY    29   4  34 NW17G25   30.04R WCI  17
BLUE HILL        N/A     28  11  48 NW14G22   29.99R WCI  17
NORWOOD        CLOUDY    31   8  38 NW13      30.04R WCI  21
MARSHFIELD     CLOUDY    32  28  86 CALM      30.07R FOG
PLYMOUTH       SNOW      28  26  92 NW8       30.06R VSB 1/2 WCI  20
TAUNTON        SNOW      29  25  85 NW14G21   30.06R VSB 1/2 WCI  18
NEW BEDFORD    LGT SNOW  30  28  92 W14G20    30.06R FOG     WCI  19
$$

MAZALL-051600-
CAPE COD AND THE ISLANDS

CITY           SKY/WX    TMP DP  RH WIND       PRES   REMARKS
FALMOUTH       LGT SNOW  30  28  93 N8        30.04R VSB 1   WCI  23
HYANNIS        LGT SNOW  30  28  92 N15G22    30.03R VSB 3/4 WCI  19
CHATHAM        SNOW      29  27  92 NW8G23    30.05R VSB 1/2 WCI  21
PROVINCETOWN   CLOUDY    28  23  80 NW17      30.06R WCI  16
NANTUCKET      LGT SNOW  31  29  92 N13       30.02R VSB 3/4 WCI  21
MARTHAS VNYRD  LGT SNOW  31  27  85 N10       30.04R VSB 1   WCI  22
$$

MAZALL-051600-
CENTRAL AND WESTERN MASSACHUSETTS

CITY           SKY/WX    TMP DP  RH WIND       PRES   REMARKS
WORCESTER      CLOUDY    26   6  42 NW15      30.01R WCI  14
FITCHBURG      CLOUDY    29   6  38 NW12      30.05S WCI  19
ORANGE         CLOUDY    26   4  38 NW13      30.06R WCI  15
SPRINGFIELD    CLOUDY    28   5  38 NW16G22   30.07R WCI  15
WESTFIELD      CLOUDY    27   9  46 W14       30.09R WCI  16
NORTH ADAMS    CLOUDY    22   2  42 W15G22    30.09R WCI   9
PITTSFIELD     CLOUDY    19   3  49 NW14G25   30.04R WCI   6
$$

RIZALL-051600-
RHODE ISLAND

CITY           SKY/WX    TMP DP  RH WIND       PRES   REMARKS
PROVIDENCE     LGT SNOW  28  25  88 N8        30.08R VSB 3/4 WCI  20
NEWPORT        LGT SNOW  29  27  92 N12G20    30.06R VSB 3/4 WCI  19
BLOCK ISLAND   CLOUDY    30  27  86 N13       30.06R VSB 3/4 WCI  20
SMITHFIELD     CLOUDY    27  19  74 W6        30.04R WCI  20
WESTERLY       LGT SNOW  29  27  92 N10       30.08R VSB 3/4 WCI  20
$$

CTZALL-051600-
CONNECTICUT

CITY           SKY/WX    TMP DP  RH WIND       PRES   REMARKS
BRADLEY INTL   CLOUDY    30   9  41 NW13      30.09R WCI  20
HARTFORD       CLOUDY    29   9  43 NW12G24   30.11R WCI  19
BRIDGEPORT     LGT SNOW  25  22  88 N15       30.14R FOG     WCI  13
DANBURY        LGT SNOW  22  15  75 N9        30.12S WCI  12
GROTON         SNOW      26  25  96 NW10      30.08R VSB 1/2 WCI  16
NEW HAVEN      LGT SNOW  25  22  88 N12       30.12S VSB 1   WCI  14
CHESTER        SNOW      27  23  86 NW8       30.09S VSB 1/2 WCI  18
MERIDEN        LGT SNOW  25  19  78 N8        30.13R WCI  16
WILLIMANTIC    LGT SNOW  27  21  78 NW6       30.08R VSB 3/4 WCI  20
OXFORD         LGT SNOW N/A N/A N/A N7        30.09S FOG
$$

MEZ002-015-021-024-NHZ003-005-008-011-012-014-VTZ005-008-051600-
NORTHERN NEW ENGLAND

CITY           SKY/WX    TMP DP  RH WIND       PRES   REMARKS
PORTLAND ME    CLOUDY    28   6  39 N15       30.03R WCI  16
BANGOR ME      CLOUDY    21   2  43 NW17G28   30.00S WCI   7
CONCORD NH     CLOUDY    26   1  34 NW16G25   30.05R WCI  14
MANCHESTER NH  CLOUDY    28   6  39 NW13      30.03S WCI  17
NASHUA NH      CLOUDY    29   3  32 NW17G26   30.05R WCI  17
PORTSMOUTH NH  CLOUDY    28   0  30 W13       30.02R WCI  17
JAFFREY NH     CLOUDY    24   1  36 NW5       30.02R WCI  18
KEENE NH       CLOUDY    27   1  33 N13       30.06R WCI  16
BURLINGTON VT  CLOUDY    13  -3  49 N18G24    30.22R WCI  -4
MT. WASHINGTON BLWGSNOW  -9  -9 100 NW60        N/A  VSB 1/16WCI -47
$$

NYZ052-076-051600-
EASTERN NEW YORK

CITY           SKY/WX    TMP DP  RH WIND       PRES   REMARKS
ALBANY         CLOUDY    21   4  47 NW13      30.18R WCI   9
NEW YORK CITY  SNOW      27  24  89 NE12      30.14R VSB 1/4 WCI  17
$$

ANZALL-051600-
MARINE OBSERVATIONS

STATION/POSITION TIME  TEMP    WIND        PRES    VSBY  WAVE
                       AIR SEA DIR/SP/G                  HT/PER
                 (UTC) (F)     (DEG/KT/KT) (MB)    (MI)  (FT/S)
BOSTON BUOY      1450   33 36  310/ 16/ 19 1017.1R         2/ 3
BUZZARDS BAY     1500          320/ 10/ 11 1018.5R
NANTUCKET SOUND  1450   31 31  340/ 12/ 14 1017.0R         1/ 2
MASS BAY-STELLWA 1404   33 36  300/ 12/ 14   N/A    1 7/8  3/11
ISLE OF SHOALS   1500   29     320/ 19/ 21 1016.3R
S OF BLOCK IS    1408      37                N/A           5/10
$$

......................KEY.........................
  SKY/WX - SKY CONDITION/PRESENT WEATHER
  TMP    - TEMPERATURE IN FAHRENHEIT
  DWPT   - DEWPOINT IN FAHRENHEIT
  RH     - RELATIVE HUMIDITY IN PERCENT
  WIND   - DIRECTION AND SPEED IN MPH
  PRES   - MEAN SEA LEVEL PRESSURE IN INCHES OF HG
  WCI    - WIND CHILL INDEX
  VSB    - VISIBILITY IN MILES
  HX     - HEAT INDEX
  TC     - TEMPERATURE IN CELSIUS
  VRB    - VARIABLE WIND DIRECTION
  N/A    - NOT AVAILABLE


USA.gov is the U.S. government's official web portal to all federal, state and local government web resources and services.